This is the latest recevied weather packets stored in our database for station/object N7NIP. If no packets are shown the sender has not sent any weather packets the latest 10 day(s).
| Time | Temp. | Humidity | Pressure | Rain* | Wind** | Luminosity | Snow |
|---|---|---|---|---|---|---|---|
| 1777679338 | 22.22° C | 52% | 1028.3 hPa | 0 mm | - | 504 W/m² | - |
| 1777679035 | 22.22° C | 51% | 1028.6 hPa | 0 mm | - | 549 W/m² | - |
| 1777678733 | 21.67° C | 54% | 1028.3 hPa | 0 mm | - | 486 W/m² | - |
| 1777678431 | 21.67° C | 54% | 1028.4 hPa | 0 mm | - | 550 W/m² | - |
| 1777678126 | 21.67° C | 52% | 1028.4 hPa | 0 mm | - | 682 W/m² | - |
| 1777677824 | 21.67° C | 53% | 1028.5 hPa | 0 mm | - | 520 W/m² | - |
| 1777677521 | 21.67° C | 55% | 1028.6 hPa | 0 mm | - | 399 W/m² | - |
| 1777677219 | 21.67° C | 54% | 1028.4 hPa | 0 mm | - | 422 W/m² | - |
| 1777676917 | 21.67° C | 54% | 1028.5 hPa | 0 mm | - | 711 W/m² | - |
| 1777676616 | 21.67° C | 55% | 1028.7 hPa | 0 mm | - | 523 W/m² | - |
| 1777676313 | 21.67° C | 54% | 1028.8 hPa | 0 mm | - | 477 W/m² | - |
| 1777676010 | 22.22° C | 54% | 1028.9 hPa | 0 mm | - | 433 W/m² | - |
| 1777675706 | 22.22° C | 54% | 1028.8 hPa | 0 mm | - | 638 W/m² | - |
| 1777675404 | 22.22° C | 53% | 1029.1 hPa | 0 mm | - | 700 W/m² | - |
| 1777675100 | 22.22° C | 52% | 1028.8 hPa | 0 mm | - | 726 W/m² | - |
| 1777674796 | 21.67° C | 54% | 1028.9 hPa | 0 mm | - | 536 W/m² | - |
| 1777674492 | 21.67° C | 53% | 1028.9 hPa | 0 mm | - | 607 W/m² | - |
| 1777674191 | 22.22° C | 52% | 1029 hPa | 0 mm | - | 735 W/m² | - |
| 1777673887 | 22.22° C | 54% | 1029.2 hPa | 0 mm | - | 734 W/m² | - |
| 1777673583 | 21.67° C | 53% | 1029.1 hPa | 0 mm | - | 651 W/m² | - |
| 1777673281 | 21.67° C | 54% | 1029.1 hPa | 0 mm | - | 731 W/m² | - |
| 1777672978 | 22.22° C | 55% | 1029 hPa | 0 mm | - | 786 W/m² | - |
| 1777672675 | 21.67° C | 53% | 1029.2 hPa | 0 mm | - | 786 W/m² | - |
| 1777672370 | 21.67° C | 54% | 1029.3 hPa | 0 mm | - | 779 W/m² | - |
| 1777672066 | 21.67° C | 53% | 1029.4 hPa | 0 mm | - | 709 W/m² | - |
* Rain latest hour (hover to see other rain measurements)
** Current wind speed in m/s (hover to see current wind gust speed)